Terug naar catalogus

STARLINK-35328

ActiefCommunicatieSSO
NORAD 65652·PAYLOAD·🇺🇸 United States

Gelanceerd Sep 19, 2025 vanaf Vandenberg Space Force Base

Loading…

Volgende Passages (komende 24 uur)

TLE

VersSource: CelesTrak SupGP

Epoch: Sep 15, 2026, 02:48 UTC

1 65652C 25211A   26258.11715278 -.00005779  00000+0 -17935-3 0  2585
2 65652  97.2834 298.3983 0001238  88.6800  23.6558 15.33451282    19

Volg STARLINK-35328 in realtime met AllMySat

Download on the App Store